Weather History for Coolangatta, QU

Change the Weather History Date:

Monday, July 29, 2013

  Actual Average (YBBN) Record (YBBN)
Temperature  
Mean Temperature 62 °F -  
Max Temperature 69 °F 67 °F 77 °F (2014)
Min Temperature 55 °F 47 °F 39 °F (2003)
Degree Days  
Heating Degree Days 3    
Growing Degree Days 12 (Base 50)    
Moisture  
Dew Point 57 °F    
Average Humidity 87    
Maximum Humidity 100    
Minimum Humidity 59    
Precipitation  
Precipitation 0.12 in - - ()
Sea Level Pressure  
Sea Level Pressure 30.24 in    
Wind  
Wind Speed 6 mph ()    
Max Wind Speed 14 mph    
Max Gust Speed -    
Visibility 5.8 miles    
Events      
Averages and records for this station are not official NWS values.
T = Trace of Precipitation, MM = Missing Value Source: Averaged Metar Reports

Daily Weather History Graph

Daily Weather History Graph

Search for Another Location

Airport:

Trip Planner

Search our weather history database for the weather conditions in past years. The results will help you decide how hot, cold, wet, or windy it might be!

Date:

Astronomy

Jul. 29, 2013 Rise Set
Actual Time 6:30 AM AEST 5:14 PM AEST
Civil Twilight 6:05 AM AEST 5:39 PM AEST
Nautical Twilight 5:37 AM AEST 6:08 PM AEST
Astronomical Twilight 5:09 AM AEST 6:36 PM AEST
Moon 11:56 PM AEST (7/29) 10:33 AM AEST (7/29)
Length of Visible Light 11h 34m
Length of Day
10h 44m
Waning Gibbous, 57% of the Moon is Illuminated
Jul 29
Waning Gibbous
Jul 30
Last Quarter
Aug 7
New
Aug 14
First Quarter
Aug 21
Full

Hourly Weather History & Observations

Time (AEST) Temp. Dew Point Humidity Pressure Visibility Wind Dir Wind Speed Gust Speed Precip Events Conditions
12:00 AM 61 °F 55 °F 76% 30.35 in - East 9.2 mph - -   Overcast
12:00 AM 60.8 °F 55.4 °F 82% 30.33 in 6.2 mi East 9.2 mph - N/A   Overcast
12:30 AM 60.8 °F 55.4 °F 82% 30.33 in 6.2 mi South 5.8 mph - N/A   Overcast
1:00 AM 59.0 °F 57.2 °F 94% 30.30 in 6.2 mi WSW 9.2 mph - N/A   Overcast
1:30 AM 59.0 °F 57.2 °F 94% 30.30 in 6.2 mi SW 6.9 mph - N/A   Overcast
2:00 AM 59.0 °F 55.4 °F 88% 30.30 in 6.2 mi SSW 1.2 mph - N/A   Mostly Cloudy
2:30 AM 57.2 °F 55.4 °F 94% 30.27 in 6.2 mi SW 4.6 mph - N/A   Mostly Cloudy
3:00 AM 57 °F 55 °F 92% 30.29 in - SW 4.6 mph - -   Overcast
3:00 AM 57.2 °F 55.4 °F 94% 30.27 in 6.2 mi SW 4.6 mph - N/A   Mostly Cloudy
3:30 AM 57.2 °F 55.4 °F 94% 30.27 in 6.2 mi South 4.6 mph - N/A   Mostly Cloudy
3:43 AM 57.2 °F 55.4 °F 94% 30.27 in 3.7 mi South 4.6 mph - N/A   Mostly Cloudy
4:00 AM 57.2 °F 55.4 °F 94% 30.27 in 4.3 mi South 8.1 mph - N/A   Overcast
4:09 AM 57.2 °F 55.4 °F 94% 30.27 in 6.2 mi South 5.8 mph - N/A   Overcast
4:30 AM 55.4 °F 53.6 °F 94% 30.24 in 6.2 mi SW 2.3 mph - N/A   Scattered Clouds
5:00 AM 55.4 °F 55.4 °F 100% 30.24 in 6.2 mi SW 3.5 mph - N/A   Mostly Cloudy
5:30 AM 59.0 °F 57.2 °F 94% 30.24 in 6.2 mi SE 8.1 mph - N/A   Overcast
6:00 AM 60 °F 56 °F 81% 30.27 in - SSE 8.1 mph - -   Overcast
6:00 AM 59.0 °F 55.4 °F 88% 30.27 in 6.2 mi SSE 8.1 mph - N/A   Overcast
6:30 AM 59.0 °F 55.4 °F 88% 30.27 in 6.2 mi SSW 6.9 mph - N/A   Overcast
7:00 AM 59.0 °F 55.4 °F 88% 30.27 in 6.2 mi WSW 3.5 mph - N/A   Overcast
7:18 AM 59.0 °F 55.4 °F 88% 30.27 in 3.7 mi SE 2.3 mph - N/A   Overcast
7:30 AM 59.0 °F 57.2 °F 94% 30.27 in 4.3 mi SW 4.6 mph - N/A   Overcast
7:37 AM 59.0 °F 57.2 °F 94% 30.27 in 5.0 mi SW 5.8 mph - N/A   Overcast
8:00 AM 59.0 °F 57.2 °F 94% 30.27 in 6.2 mi West 6.9 mph - N/A   Overcast
8:30 AM 60.8 °F 57.2 °F 88% 30.27 in 6.2 mi WSW 8.1 mph - N/A   Overcast
9:00 AM 60 °F 58 °F 89% 30.30 in 6 mi SW 6.9 mph - -   Overcast
9:00 AM 60.8 °F 57.2 °F 88% 30.30 in 5.6 mi SW 6.9 mph - N/A   Overcast
9:30 AM 60.8 °F 59.0 °F 94% 30.30 in 6.2 mi SSW 4.6 mph - N/A   Overcast
10:00 AM 64.4 °F 59.0 °F 83% 30.30 in 6.2 mi SW 5.8 mph - N/A   Overcast
10:30 AM 64.4 °F 59.0 °F 83% 30.27 in 6.2 mi SSW 6.9 mph - N/A   Overcast
11:00 AM 66.2 °F 57.2 °F 73% 30.27 in 6.2 mi South 8.1 mph - N/A   Mostly Cloudy
11:30 AM 69.8 °F 59.0 °F 68% 30.27 in 6.2 mi South 9.2 mph - N/A   Mostly Cloudy
12:00 PM 69 °F 58 °F 59% 30.25 in - SSW 9.2 mph - -  
12:00 PM 69.8 °F 57.2 °F 64% 30.24 in 6.2 mi South 9.2 mph - N/A   Scattered Clouds
12:30 PM 68.0 °F 57.2 °F 68% 30.24 in 6.2 mi South 5.8 mph - N/A   Overcast
12:44 PM 62.6 °F 57.2 °F 82% 30.24 in 3.7 mi NNE 13.8 mph - N/A   Overcast
1:00 PM 62.6 °F 59.0 °F 88% 30.21 in 1.7 mi NNE 10.4 mph - N/A   Overcast
1:30 PM 62.6 °F 59.0 °F 88% 30.21 in - South 1.2 mph - N/A   Overcast
2:00 PM 62.6 °F 59.0 °F 88% 30.21 in 3.1 mi WNW 5.8 mph - N/A   Overcast
2:12 PM 62.6 °F 59.0 °F 88% 30.21 in 6.2 mi WNW 6.9 mph - N/A   Overcast
2:30 PM 62.6 °F 59.0 °F 88% 30.21 in 6.2 mi WSW 8.1 mph - N/A   Overcast
3:00 PM 62 °F 59 °F 85% 30.21 in - SW 9.2 mph - -  
3:00 PM 62.6 °F 59.0 °F 88% 30.18 in 6.2 mi SW 9.2 mph - N/A   Overcast
3:30 PM 62.6 °F 59.0 °F 88% 30.21 in 6.2 mi SW 5.8 mph - N/A   Overcast
4:00 PM 64.4 °F 59.0 °F 83% 30.18 in 6.2 mi SW 5.8 mph - N/A   Overcast
4:30 PM 62.6 °F 57.2 °F 82% 30.18 in 6.2 mi South 4.6 mph - N/A   Scattered Clouds
5:00 PM 60.8 °F 57.2 °F 88% 30.18 in 6.2 mi South 5.8 mph - N/A   Scattered Clouds
5:30 PM 59.0 °F 57.2 °F 94% 30.18 in 6.2 mi SSW 4.6 mph - N/A   Scattered Clouds
6:00 PM 60 °F 56 °F 83% 30.21 in - SW 6.9 mph - -  
6:00 PM 60.8 °F 57.2 °F 88% 30.18 in 6.2 mi SW 6.9 mph - N/A   Mostly Cloudy
6:30 PM 59.0 °F 55.4 °F 88% 30.21 in 6.2 mi SW 8.1 mph - N/A   Mostly Cloudy
7:00 PM 59.0 °F 55.4 °F 88% 30.21 in 6.2 mi SW 3.5 mph - N/A   Mostly Cloudy
7:30 PM 59.0 °F 57.2 °F 94% 30.21 in 6.2 mi SSE 5.8 mph - N/A   Overcast
8:01 PM 59.0 °F 57.2 °F 94% 30.21 in 3.7 mi South 9.2 mph - N/A   Overcast
8:18 PM 59.0 °F 57.2 °F 94% 30.21 in 6.2 mi SW 6.9 mph - N/A   Overcast
8:30 PM 59.0 °F 57.2 °F 94% 30.21 in 6.2 mi SW 6.9 mph - N/A   Overcast
9:00 PM 59 °F 56 °F 86% 30.22 in - SSW 6.9 mph - -   Overcast
9:00 PM 59.0 °F 55.4 °F 88% 30.21 in 6.2 mi SSW 6.9 mph - N/A   Overcast
9:30 PM 59.0 °F 55.4 °F 88% 30.21 in 6.2 mi SSW 6.9 mph - N/A   Overcast
10:00 PM 59.0 °F 55.4 °F 88% 30.21 in 6.2 mi WSW 5.8 mph - N/A   Overcast
10:30 PM 59.0 °F 55.4 °F 88% 30.18 in 6.2 mi SSW 4.6 mph - N/A   Overcast
11:00 PM 59.0 °F 55.4 °F 88% 30.18 in 6.2 mi SW 4.6 mph - N/A   Overcast
11:30 PM 59.0 °F 55.4 °F 88% 30.18 in 6.2 mi SSW 6.9 mph - N/A   Overcast